Location: LDNL
(36.4545°S, 141.6685°E)
Time: 11:57:33
(UTC+10:00)

Vanguard 3 - Pass Details

Date: 02 February 2022
Orbit: 508 x 3258 km, 33.3° (Epoch: 25 May)

Event Time Altitude Azimuth Distance (km) Brightness Sun altitude
Rises 00:53:16 0° 284° (WNW) 3,527 - -35.1°
Reaches altitude 10° 00:55:20 10° 286° (WNW) 2,817 - -35.2°
Maximum altitude 01:02:18 72° 9° (N) 1,553 - -35.5°
Exits shadow 01:07:41 35° 83° (E) 2,712 9.5 -35.8°
Drops below altitude 10° 01:15:10 10° 90° (E) 4,971 11.0 -36.0°
Sets 01:20:03 0° 90° (E) 6,383 11.7 -36.2°
